User: anonymous   Login
Location: Bismarck
(46.7731°N, 100.8200°W)
Time: 14:26:47
(UTC-05:00)
Language:

Cosmos 2219 Rocket - Orbit

View from above orbital plane
View from above orbital plane
View from above satellite
View from above satellite

Ground track
Ground track

The orbit data is extracted from the following two-line orbital elements,

1 22220U 92076B   15211.81579516 -.00000187  00000-0 -70113-4 0  9998
2 22220 070.9998 066.0770 0014853 244.5717 190.3566 14.16371626173445
Epoch (UTC): 30 July 2015 19:34:44
Eccentricity: 0.0014853
inclination: 70.9998°
perigee height: 827 km
apogee height: 848 km
right ascension of ascending node: 66.0770°
argument of perigee: 244.5717°
revolutions per day: 14.16371626
mean anomaly at epoch: 190.3566°
orbit number at epoch: 17344

The dashed part of the orbit path shows where the satellite is in the earth's shadow,  

DLR